sat.trackr.live / text

‹ back to catalog

STARLINK-31037

NORAD 58536 · 2023-192F

PAYLOAD ACTIVE UNKNOWN

§ Identity

Operator
Country
US
Launch date
2023-12-08
Launch site
AFWTR
Launch vehicle
Mass (kg)
RCS (m²)

Purposes: comms

External: N2YO · Heavens-Above · Gunter

§ Orbital elements

Epoch: 2026-09-20T22:21:46.869408Z

Period
93.85 min
Inclination
53.1600°
Eccentricity
0.0001998
Mean motion
15.34383088 rev/d
Perigee alt
461.4 km
Apogee alt
464.1 km
Semi-major
6,840.9 km
B*
-2.0459e-5
RAAN
231.9266°
Arg perigee
98.8072°
Mean anomaly
261.3157°
Rev number
15,593

§ Raw data

STARLINK-310371 58536U 23192F   26263.93179247 -.00001068  00000+0 -20459-4 0  99952 58536  53.1600 231.9266 0001998  98.8072 261.3157 15.34383088155935

JSON: /api/v1/satellites/58536 · /tle

For live sub-satellite position, see the globe view (requires WebGL).

§ Visibility from observer

Set your observer location to see the next 7 days of passes ≥ 10°. The values pass through the URL so the page stays shareable.

No JS? Fill the form by hand. The geolocation button needs JavaScript.